{"data":{"norad_id":66415,"epoch":"2026-05-25T02:48:33.361056Z","epoch_age_seconds":68913,"freshness":"FRESH","line1":"1 66415U 25258D   26145.11705279 -.00000088  00000+0  77490-4 0  9991","line2":"2 66415  50.0064  18.3061 0000980  59.9774 300.1195 13.29322864 26654","mean_motion":13.29322864,"eccentricity":9.8e-5,"inclination_deg":50.0064,"raan_deg":18.3061,"arg_perigee_deg":59.9774,"mean_anomaly_deg":300.1195,"bstar":7.749e-5,"rev_number":2665,"period_min":108.32582805858,"perigee_km":1148.5807198593,"apogee_km":1150.0561011198,"semimajor_km":7527.4554104895,"source":"CELESTRAK","updated_at":"2026-05-25T13:38:06.206085Z"}}